Regional Weather Roundup
Issued by NWS

Home | Current Version | Previous Version | Graphics & Text | Print | Product List | Glossary On
Versions: 1 2 3 4 5 6 7 8 9 10 11 12 13 14 15 16 17 18 19 20 21 22 23 24 25 26 27 28 29 30 31 32 33 34 35 36 37 38 39 40 41 42 43 44 45 46 47 48 49 50
000
ASUS43 KLOT 260100
RWRIL

ILLINOIS REGIONAL WEATHER ROUNDUP
NATIONAL WEATHER SERVICE CHICAGO/ROMEOVILLE IL
700 PM CST TUE NOV 25 2014

NOTE: "FAIR" INDICATES FEW OR NO CLOUDS BELOW 12,000 FEET WITH NO
SIGNIFICANT WEATHER AND/OR OBSTRUCTIONS TO VISIBILITY.

* THESE STATIONS ARE NOT UNDER NWS QUALITY CONTROL. THEY ALSO MAY NOT
  REPORT WEATHER SUCH AS PRECIPITATION OR FOG.

ILZ001-002-007-009-015-016-024-260200-
NORTHWEST ILLINOIS

CITY           SKY/WX    TMP DP  RH WIND       PRES   REMARKS
MOLINE         CLEAR     17  14  88 SE6       30.15S WCI   9
STERLING*      CLEAR     10   7  85 SE3       30.16R
$$

ILZ003-004-008-010-011-017-018-260200-
NORTH CENTRAL ILLINOIS

CITY           SKY/WX    TMP DP  RH WIND       PRES   REMARKS
ROCKFORD       CLEAR     16  12  84 S3        30.17R
$$

ILZ005-006-012>014-019>023-260200-
NORTHEAST ILLINOIS

CITY           SKY/WX    TMP DP  RH WIND       PRES   REMARKS
CHICAGO-OHARE  PTCLDY    20  15  81 SW5       30.17R WCI  13
CHICAGO-MIDWAY MOCLDY    23  16  74 W6        30.18S WCI  16
AURORA         CLEAR     14  10  84 S5        30.17S FOG     WCI   6
WAUKEGAN       CLOUDY    20  14  77 SW5       30.15R WCI  13
DUPAGE AIRPORT CLEAR     17  14  88 S5        30.16R WCI  10
WHEELING       CLEAR     21  15  78 SW3       30.19R
NORTHERLY ISL    N/A     24  17  74 SW5         N/A  WCI  18
$$

LMZ740>746-260200-
SOUTHERN LAKE MICHIGAN

STATION/POSITION SKY/WX   TEMP    WIND        PRES    VSBY  WAVE
                          AIR SEA DIR/SP/G                  HT/PER
                          (F)     (DEG/KT/KT) (MB)    (MI)  (FT/S)
SOUTHERN BUOY              29 42  270/ 10/ 16 1021.5R         3/ 6
WAUKEGAN HARBOR            21     230/  7/ 10   N/A
HARRISON CRIB              24     270/  9/ 11   N/A
BURNHAM HARBOR             24     290/  4/  8   N/A
CALUMET HARBOR             23     260/  4/  6 1020.9R
MICHIGAN CITY              26     170/  8/ 10   N/A
$$

ILZ025>027-034>036-040-047-049-050-058-095>099-260200-
WEST-CENTRAL ILLINOIS

CITY           SKY/WX    TMP DP  RH WIND       PRES   REMARKS
QUINCY         CLEAR     30  21  69 SE3       30.14S
$$

ILZ028>032-037-038-041>044-048-051>054-059>061-260200-
CENTRAL ILLINOIS

CITY           SKY/WX    TMP DP  RH WIND       PRES   REMARKS
DECATUR        CLEAR     26  23  88 SE6       30.18S WCI  19
PEORIA         FAIR      25  19  78 CALM      30.18R
SPRINGFIELD    CLEAR     28  24  85 CALM      30.18R
TAYLORVILLE    NOT AVBL
$$

ILZ033-039-045-046-055>057-062-063-260200-
EAST-CENTRAL ILLINOIS

CITY           SKY/WX    TMP DP  RH WIND       PRES   REMARKS
CHAMPAIGN      CLOUDY    28  21  75 CALM      30.20R
MATTOON        CLOUDY    30  22  72 CALM      30.19R
$$

ILZ079-100>102-260200-
SOUTHWEST ILLINOIS

CITY           SKY/WX    TMP DP  RH WIND       PRES   REMARKS
ALTON          CLEAR     28  23  80 CALM      30.18S
BELLEVILLE     CLEAR     29  25  85 CALM      30.18S
CAHOKIA*       CLEAR     31  24  75 S3        30.18S
$$

ILZ064>066-069>071-074>076-080>082-084>086-088>090-092>094-260200-
SOUTH-CENTRAL ILLINOIS

CITY           SKY/WX    TMP DP  RH WIND       PRES   REMARKS
CARBONDALE     CLEAR     28  23  81 CALM      30.20R
MT. VERNON     CLEAR     27  19  74 CALM      30.21S
$$

ILZ067-068-072-073-078-083-087-091-260200-
SOUTHEAST ILLINOIS

CITY           SKY/WX    TMP DP  RH WIND       PRES   REMARKS
LAWRENCEVILLE  CLOUDY    31  25  78 N5        30.23R WCI  26
$$

ABBREVIATIONS USED IN REMARKS
   TC - TEMPERATURE IN CELSIUS
  WCI - WIND CHILL INDEX
   HX - HEAT INDEX
  VSB - VISIBILITY
$$




USA.gov is the U.S. government's official web portal to all federal, state and local government web resources and services.